Temp_Advection
nan nan nan nan nan nan nan nan nan nan nan nan nan nan nan nan nan nan nan nan nan nan nan nan nan nan nan nan nan nan nan nan nan nan nan nan nan nan nan nan nan nan nan nan
nan -0 -1 -0 -0 -0 -0 -0 -0 -1 -0 0 0 0 0 0 -0 -0 -0 -1 -1 -1 -0 -0 -0 -0 -0 -0 0 0 -0 0 -0 -0 -0 -0 -0 0 0 0 0 0 0 nan
nan -1 1 0 0 0 -0 -0 -0 -0 -0 -0 -0 -0 -0 -0 0 0 -2 -1 -0 -1 0 -0 0 -0 -0 -0 0 0 -0 0 -0 -0 0 0 0 -0 -0 -0 -0 0 0 nan
nan -1 -0 0 0 -0 -0 -1 -0 0 -0 -0 -0 0 -0 -0 -0 -0 0 1 -0 0 0 0 0 -2 -1 0 1 0 0 0 0 0 0 -0 -0 -0 -0 -0 0 0 -0 nan
nan -0 0 0 -0 -0 -1 0 -0 -0 -0 -0 -0 -0 -0 -0 0 0 0 -1 -1 -1 -1 1 -1 -1 1 1 1 1 0 0 -0 -0 -0 -0 -0 -0 0 0 0 -0 0 nan
nan -0 0 -0 -0 -0 -0 -0 -1 -0 0 0 -0 -0 -0 0 -0 -0 -0 -0 -1 -0 1 2 0 1 1 1 1 1 0 0 -0 -0 -0 -0 -0 0 0 0 0 0 0 nan
nan -0 -0 -0 0 -0 -1 -1 -0 0 0 -0 0 0 -0 -0 -1 -1 -1 -1 1 0 1 1 1 0 -0 -0 0 0 -0 -0 -0 -0 -0 0 0 -0 0 0 0 0 -0 nan
nan -0 -0 -0 0 -0 -0 -1 -0 -0 0 0 0 0 -0 -1 -2 -3 -2 -3 -2 -0 1 0 -1 -1 -1 -0 0 -0 -0 -0 -0 -0 -0 0 0 0 0 0 0 0 0 nan
nan -0 -0 0 -0 -0 0 -0 -0 -0 0 0 -0 -1 0 -2 -2 -3 -2 -2 -2 -3 -2 -0 1 1 0 -1 -0 -0 0 -0 -0 -0 0 0 0 0 0 0 0 0 0 nan
nan -0 -0 -0 -0 -0 -0 -0 -0 -0 0 0 -0 -0 -0 -1 -1 -1 -1 -1 -1 0 -1 1 1 0 -1 -0 1 1 1 0 0 1 0 0 0 0 0 0 0 0 0 nan
nan 0 -0 -0 -0 -0 -0 -0 -1 -0 0 0 -0 -0 -0 0 0 -0 -1 -1 0 1 -1 -0 0 -0 0 1 1 1 1 2 2 1 1 0 0 0 1 1 0 -0 -0 nan
nan 0 0 0 -0 -0 -0 -0 -0 0 0 -0 -0 0 -0 0 -0 -0 -1 -1 1 -0 0 0 0 0 0 1 1 1 2 1 1 -0 -1 -0 1 0 0 0 0 0 0 nan
nan -0 0 -0 -0 -0 -0 -0 0 -0 -0 -0 0 -0 -0 -0 -0 -0 -0 1 -0 -0 -0 -0 -1 -0 0 0 0 0 1 1 0 -0 -0 0 -2 -1 1 1 -0 0 0 nan
nan -0 0 0 0 0 -0 -0 -0 -0 -0 -0 0 -0 -0 -1 -0 0 0 0 -0 -0 -0 -1 -1 -1 -0 -0 -0 -0 -0 -0 -0 -0 -0 -0 -0 -1 -2 -1 0 1 1 nan
nan 0 0 -0 -0 -0 -0 -0 -0 -0 0 -0 0 0 0 0 -0 0 0 0 -0 -0 -0 -1 -1 -0 -0 -1 -1 4 -0 -1 0 1 1 1 2 1 -1 -3 -2 0 1 nan
nan 0 0 -0 -0 -0 -0 -0 -0 -0 -0 -0 -0 -0 -0 -0 0 -0 1 -0 -0 0 -0 -0 -0 0 -0 -0 0 0 -3 -4 -1 -0 1 2 1 3 3 -1 -3 -1 0 nan
nan 0 0 0 -0 -0 -0 -0 -0 -0 -0 -0 0 -0 -0 -0 -0 -0 -0 -1 -0 0 0 0 0 -0 -1 0 0 0 -1 -1 0 -2 0 3 -2 -0 3 2 -1 -2 0 nan
nan -0 0 0 -0 0 0 -0 -0 -0 -0 -0 -0 -0 -0 -0 -1 -0 0 -0 -1 -1 -1 -0 0 0 -1 -1 -1 -1 -1 -2 -1 -0 3 1 -2 -3 -0 3 -0 -1 0 nan
nan -0 0 0 -0 0 -0 0 0 0 0 -0 -0 -0 -0 -1 -2 -1 -0 -0 -0 -1 -1 -1 -0 -0 0 -0 -0 -1 -1 -2 -2 -3 -2 -0 -3 -3 -1 3 -0 -1 -0 nan
nan 0 0 0 0 0 0 -0 -0 -0 0 -0 0 0 -0 -1 -0 -0 -2 -1 -1 -1 -1 -1 -1 -1 -0 0 0 0 -0 -0 -1 -1 -2 -3 -1 -1 -2 -0 2 -1 -0 nan
nan 0 0 -0 0 -0 -0 -0 -0 0 0 -0 -0 0 0 -0 -0 -0 -1 -2 -1 -1 -2 -2 -1 -1 -1 -1 -0 0 0 0 0 0 -1 -1 -1 -1 -1 -1 -1 -2 0 nan
nan -0 0 0 0 -0 -0 0 0 0 -0 0 -0 0 0 0 -0 -1 -1 -1 -2 -1 -2 -1 -1 -2 -2 -1 -0 -0 0 0 0 0 1 -0 -1 0 -0 0 -1 -1 0 nan
nan -0 0 -0 0 0 0 0 0 0 -0 0 0 -0 -0 -0 -0 -0 -1 -1 -1 -1 -1 -1 -1 -2 -2 -2 -1 -1 -1 -0 -0 -0 0 0 0 -1 -0 -1 1 1 0 nan
nan -0 -0 0 -0 0 0 -0 -0 0 0 -0 0 0 -0 -0 -0 -0 -1 -1 -1 -1 -1 -1 -1 -1 -2 -2 -1 -1 -1 -0 -0 -0 -0 -0 0 0 0 0 -0 0 -0 nan
nan -0 -0 0 -0 0 -0 0 -0 0 -0 0 -0 0 -0 0 -0 -0 -0 -0 -0 -1 -1 -1 -1 -2 -2 -2 -2 -2 -1 -1 -1 -0 -0 -0 -0 -0 -0 -0 0 0 0 nan
nan nan nan nan nan nan nan nan nan nan nan nan nan nan nan nan nan nan nan nan nan nan nan nan nan nan nan nan nan nan nan nan nan nan nan nan nan nan nan nan nan nan nan nan
Wind_Speed
4 5 6 10 7 5 3 3 6 13 4 5 6 8 10 24 23 24 26 32 31 42 41 40 41 41 37 38 37 33 33 29 30 27 26 25 23 20 21 20 18 17 12 12
5 6 12 5 3 5 5 4 8 9 4 1 1 8 7 15 27 32 34 35 36 32 35 38 40 41 40 39 38 35 35 33 32 29 28 26 23 23 20 19 20 15 14 10
6 8 9 3 7 4 9 4 6 4 5 4 4 8 7 8 18 26 34 44 43 34 40 40 43 43 40 40 39 37 36 34 35 32 28 27 24 25 23 23 22 19 17 15
6 10 5 5 7 6 4 8 7 4 3 2 3 5 6 3 9 11 30 32 39 43 39 41 43 43 44 40 39 36 37 36 35 34 32 30 28 27 28 24 22 19 19 18
8 5 5 5 7 7 9 2 2 1 3 2 3 4 9 7 9 8 17 28 36 41 46 44 45 42 43 41 40 38 39 38 36 36 34 33 31 27 25 25 22 23 22 20
9 8 5 9 5 6 3 2 6 5 3 3 3 4 6 10 9 10 8 18 31 38 47 43 41 41 41 40 39 37 40 42 37 36 37 35 34 30 27 27 26 25 26 24
6 5 4 4 2 2 6 7 4 5 5 5 1 4 1 16 18 16 20 11 17 25 33 40 42 43 43 41 40 41 40 44 41 39 38 37 36 32 29 27 25 27 29 28
1 7 5 3 7 5 3 7 5 3 1 5 1 5 3 17 25 32 27 28 21 23 34 41 44 44 44 41 40 41 41 41 42 40 39 36 35 35 31 28 26 27 29 30
3 5 6 3 3 6 2 1 3 6 3 3 3 7 7 26 27 38 38 38 36 26 26 43 45 46 45 41 39 39 40 39 39 39 38 37 36 37 33 30 27 26 27 28
3 2 3 5 7 8 6 3 4 4 2 3 5 4 7 21 22 22 28 34 39 39 8 23 28 34 42 40 36 36 36 35 32 34 34 35 33 34 33 29 28 28 26 26
5 3 6 5 6 3 6 4 5 5 4 4 0 1 7 11 9 13 22 26 35 38 25 4 15 17 30 32 33 35 36 33 33 33 31 31 31 31 32 32 29 27 29 28
4 4 3 5 2 6 5 4 4 5 4 1 3 4 4 7 13 19 22 29 36 37 28 17 4 11 13 20 24 26 27 29 29 31 33 29 27 27 29 29 29 29 29 30
3 3 3 6 6 7 7 6 3 4 3 2 4 3 9 9 9 14 16 27 31 30 30 19 15 7 5 7 5 10 15 17 17 17 24 32 36 25 24 28 29 29 29 30
8 3 5 5 4 2 5 5 5 4 3 4 2 4 9 14 13 17 23 24 26 25 27 27 23 11 2 8 13 15 3 10 9 9 8 15 22 31 36 26 25 29 29 28
5 3 3 2 8 8 4 5 8 5 2 3 2 3 5 7 9 16 14 19 22 25 27 27 26 22 18 13 14 33 33 15 17 12 17 24 26 27 29 38 31 25 29 28
4 3 3 2 4 9 11 8 6 7 5 5 5 0 3 14 17 21 22 26 23 23 22 16 23 26 18 20 8 27 37 35 30 25 27 45 47 37 34 34 38 31 28 27
3 5 3 1 3 5 5 4 2 2 3 1 0 2 8 8 15 17 19 22 24 25 25 21 17 24 23 17 11 9 20 25 40 34 41 62 54 49 36 38 34 41 33 29
4 4 3 3 2 2 4 2 4 7 3 4 3 5 9 12 20 16 10 20 26 25 27 26 28 26 22 16 15 12 17 17 21 32 49 55 53 47 47 39 38 41 34 36
3 5 3 4 3 1 4 2 2 5 2 4 4 7 12 18 19 15 10 23 24 23 25 27 25 26 23 24 22 23 23 20 25 32 37 33 40 39 42 44 41 44 34 34
6 7 5 2 4 7 3 5 11 4 4 3 6 9 13 17 6 5 25 29 30 27 24 22 23 24 19 18 20 24 24 21 24 27 27 30 23 23 30 32 46 47 37 35
3 3 4 2 2 3 2 6 4 2 4 11 11 18 19 7 14 25 31 34 33 32 31 28 26 27 24 19 20 21 21 22 24 24 28 22 35 20 19 28 51 45 41 36
3 4 2 2 3 3 2 1 0 3 8 11 14 19 23 25 30 32 32 33 33 32 31 29 28 27 25 20 18 18 17 18 21 21 22 19 26 9 27 44 16 19 42 36
1 5 5 5 4 4 7 7 5 3 8 12 18 23 24 30 33 33 31 33 33 33 32 28 26 23 24 24 21 20 17 16 17 17 16 13 8 15 28 22 17 38 18 22
3 2 4 3 3 7 7 5 1 3 8 14 17 20 24 30 31 30 30 30 30 30 30 30 29 26 23 26 26 24 19 16 13 15 19 16 11 7 5 8 9 9 6 10
4 4 5 0 3 2 10 2 2 6 11 17 22 25 27 27 26 26 28 29 28 28 29 30 33 33 30 29 29 24 24 19 19 18 16 17 16 13 11 10 11 11 10 5
6 6 4 5 10 5 4 3 2 8 12 19 25 28 23 22 26 27 25 25 26 26 28 29 28 28 29 30 32 27 22 20 19 18 18 15 15 14 14 13 10 9 8 7
Wind_Direction
14 46 255 245 195 201 233 229 263 281 273 250 248 261 184 196 205 206 208 203 209 214 225 222 222 222 219 214 208 209 206 206 204 201 200 202 205 204 201 202 204 203 210 225
5 261 248 263 222 223 207 278 283 270 344 211 213 275 240 192 214 207 207 213 216 222 214 217 219 221 219 219 215 210 208 208 205 207 208 214 214 220 216 207 207 205 207 225
174 235 47 353 295 299 279 209 254 228 329 358 356 298 270 212 217 219 222 226 222 224 219 216 217 220 221 221 219 215 212 211 210 212 212 214 218 218 212 213 214 215 217 224
231 288 238 268 252 173 264 236 234 286 60 278 62 279 307 245 216 217 228 222 222 221 222 219 215 218 221 223 224 222 215 214 214 216 216 217 218 216 220 223 224 221 215 217
249 261 272 239 226 169 227 97 96 347 90 35 341 55 267 353 312 263 238 218 217 219 217 220 217 219 222 222 220 223 218 217 218 218 219 221 224 229 230 226 229 232 225 222
241 265 220 220 233 183 62 43 37 54 69 33 267 124 303 351 309 312 326 215 212 211 217 222 222 220 222 221 220 222 222 220 222 222 223 224 228 231 230 229 233 234 230 228
314 268 267 195 235 51 77 54 352 354 13 219 185 61 340 5 7 32 26 350 238 229 221 218 218 217 218 220 220 220 222 222 223 225 226 228 230 236 239 238 240 235 233 230
112 341 341 182 203 166 69 139 149 248 222 272 124 88 69 13 6 17 28 15 18 241 224 224 222 218 220 219 220 220 222 221 223 226 228 231 234 236 242 244 246 240 237 236
157 275 307 28 116 121 184 140 179 104 28 24 324 339 284 1 4 2 357 6 6 351 242 230 224 222 220 221 223 222 223 224 226 228 230 232 234 237 241 242 245 244 242 245
215 331 322 332 56 32 100 143 37 12 67 345 354 69 328 347 346 347 353 0 0 10 296 229 224 220 222 224 225 224 227 229 229 231 235 237 239 243 247 249 250 248 245 243
136 127 306 37 17 353 13 14 47 111 125 162 21 319 346 330 336 336 339 358 12 21 27 310 232 222 224 227 232 235 235 234 236 236 238 240 243 245 247 250 251 250 242 244
4 120 90 164 303 84 81 39 109 110 283 90 134 214 1 333 339 356 352 357 19 28 29 28 216 229 230 231 237 240 243 248 248 251 248 245 248 249 249 249 250 248 247 246
118 12 83 339 353 8 57 329 331 104 79 26 136 203 357 346 24 15 356 17 21 23 24 26 31 40 147 125 199 229 232 242 240 259 266 264 260 253 247 253 251 247 246 246
90 61 141 166 188 141 70 333 343 96 104 159 169 318 334 345 355 6 11 21 23 23 22 22 18 25 68 85 70 30 261 220 232 215 247 268 272 272 267 258 256 255 248 245
90 107 69 95 96 87 78 31 18 66 108 122 154 160 284 312 321 340 2 17 21 23 21 20 29 24 17 279 306 270 280 284 289 309 316 302 311 302 277 269 256 250 247 243
13 148 137 59 93 106 81 31 32 31 38 105 125 272 250 314 326 348 4 5 6 5 4 13 31 27 35 39 212 215 266 281 285 272 291 298 293 293 286 270 261 246 240 239
58 124 82 213 98 141 34 347 60 79 22 34 271 295 325 315 323 311 336 349 350 360 358 355 355 7 0 20 27 348 304 266 278 277 283 281 279 282 280 274 256 254 236 235
124 90 81 178 11 184 238 283 87 106 32 1 311 307 326 325 326 317 325 356 344 333 340 342 349 344 343 349 329 329 331 328 302 274 261 279 279 278 275 273 248 248 238 237
137 123 80 121 86 81 276 142 224 214 264 352 339 319 324 332 330 308 330 339 342 344 337 328 332 335 343 341 336 338 330 330 313 322 301 295 278 280 273 268 244 242 236 234
58 70 110 116 145 208 189 289 337 140 267 316 318 312 320 330 312 272 318 317 315 315 321 323 323 332 331 330 333 323 328 311 320 330 324 273 301 278 292 271 242 241 231 229
28 11 109 96 125 290 212 302 328 191 251 322 315 316 317 291 287 303 309 310 309 310 307 304 303 311 320 326 318 325 318 323 326 325 311 333 338 349 346 282 252 238 233 227
139 123 157 100 104 263 351 141 212 233 314 311 314 318 313 308 310 311 313 311 311 312 310 306 304 302 303 305 309 315 318 316 321 328 336 336 324 241 341 270 236 279 237 224
31 174 174 164 204 144 112 128 159 302 298 312 312 313 313 311 310 312 309 309 310 309 309 309 310 307 293 290 285 295 292 318 307 325 330 350 341 212 278 310 325 290 202 220
357 143 106 104 243 162 140 138 7 307 313 317 314 312 313 315 318 319 315 316 316 312 308 310 306 302 298 287 285 277 285 291 300 315 323 339 329 311 314 299 290 321 126 256
195 130 138 89 140 143 183 188 335 321 329 325 326 326 321 318 315 315 308 313 316 314 313 308 305 303 297 291 286 284 279 285 284 290 304 317 333 318 315 315 331 353 3 323
188 172 156 214 171 181 185 235 257 333 339 344 338 332 327 319 317 325 319 316 314 313 312 313 310 307 303 293 288 286 280 283 280 281 285 302 314 325 319 303 299 326 343 305
Height
1516 1524 1531 1521 1521 1520 1522 1526 1528 1509 1498 1497 1498 1496 1493 1493 1496 1497 1497 1498 1499 1499 1503 1508 1511 1516 1522 1526 1531 1534 1538 1542 1546 1550 1554 1556 1557 1560 1563 1565 1567 1568 1569 1570
1523 1530 1512 1513 1516 1519 1522 1524 1522 1506 1494 1496 1495 1495 1487 1489 1487 1487 1488 1490 1491 1495 1500 1503 1506 1511 1515 1519 1525 1531 1535 1539 1543 1547 1551 1555 1557 1558 1561 1564 1566 1566 1567 1569
1529 1515 1510 1513 1512 1518 1515 1520 1515 1511 1501 1497 1499 1504 1489 1483 1482 1484 1483 1478 1484 1488 1492 1495 1499 1504 1511 1516 1520 1525 1531 1536 1540 1545 1549 1552 1555 1557 1558 1560 1562 1564 1565 1567
1521 1508 1509 1512 1516 1514 1525 1500 1504 1504 1513 1529 1504 1536 1495 1483 1484 1478 1475 1475 1476 1483 1489 1493 1497 1500 1505 1511 1518 1523 1528 1532 1536 1541 1545 1547 1550 1552 1556 1558 1561 1562 1564 1565
1518 1507 1508 1511 1506 1502 1508 1495 1499 1502 1513 1514 1515 1531 1502 1486 1481 1473 1468 1468 1471 1475 1481 1484 1490 1495 1501 1509 1515 1520 1525 1528 1532 1536 1540 1544 1547 1550 1553 1556 1558 1559 1561 1563
1506 1498 1499 1496 1491 1494 1493 1499 1507 1517 1524 1543 1519 1523 1515 1506 1491 1476 1467 1465 1468 1473 1477 1481 1488 1495 1500 1506 1512 1516 1520 1524 1528 1532 1535 1539 1542 1546 1550 1552 1554 1556 1557 1559
1507 1497 1490 1489 1495 1492 1499 1520 1551 1547 1554 1547 1520 1528 1531 1508 1498 1489 1479 1478 1477 1480 1480 1480 1483 1488 1494 1500 1505 1511 1514 1518 1522 1526 1530 1534 1537 1542 1544 1548 1549 1551 1553 1554
1527 1525 1491 1486 1489 1497 1503 1515 1548 1549 1558 1546 1522 1527 1535 1516 1509 1496 1491 1486 1480 1479 1476 1478 1481 1485 1489 1495 1499 1504 1508 1512 1517 1521 1524 1528 1532 1536 1540 1544 1546 1547 1549 1550
1527 1518 1490 1486 1486 1490 1503 1517 1511 1537 1544 1549 1536 1520 1504 1511 1508 1500 1494 1483 1482 1478 1474 1473 1474 1480 1485 1491 1495 1498 1503 1508 1513 1516 1520 1523 1527 1530 1533 1537 1541 1544 1547 1549
1505 1521 1498 1491 1486 1492 1497 1504 1526 1538 1550 1546 1543 1547 1552 1532 1525 1518 1504 1496 1486 1477 1471 1478 1482 1486 1488 1489 1493 1498 1500 1504 1508 1513 1518 1521 1525 1528 1532 1536 1539 1542 1544 1545
1501 1511 1510 1499 1511 1514 1512 1519 1523 1531 1543 1554 1561 1565 1545 1542 1537 1531 1519 1507 1495 1490 1484 1485 1488 1490 1492 1496 1499 1503 1504 1505 1508 1512 1516 1520 1522 1525 1528 1530 1533 1535 1536 1538
1501 1515 1527 1521 1511 1507 1510 1517 1526 1543 1540 1548 1551 1565 1543 1539 1534 1526 1517 1507 1500 1496 1495 1491 1490 1493 1495 1496 1501 1504 1508 1511 1512 1516 1518 1517 1520 1523 1524 1525 1526 1528 1530 1533
1500 1525 1540 1532 1523 1515 1525 1524 1520 1529 1537 1551 1553 1556 1540 1538 1535 1530 1523 1511 1506 1504 1498 1496 1496 1497 1496 1497 1502 1505 1505 1509 1508 1511 1515 1518 1519 1515 1515 1520 1520 1521 1523 1524
1498 1526 1528 1546 1533 1529 1535 1531 1525 1528 1545 1552 1551 1546 1542 1534 1530 1527 1522 1517 1513 1508 1505 1502 1500 1499 1498 1493 1493 1504 1509 1505 1506 1504 1505 1511 1515 1518 1517 1513 1513 1518 1518 1519
1505 1529 1524 1526 1529 1531 1535 1535 1531 1534 1536 1544 1550 1548 1543 1538 1534 1531 1528 1523 1519 1513 1509 1506 1503 1501 1496 1493 1489 1500 1518 1506 1504 1495 1499 1507 1511 1511 1509 1509 1508 1508 1512 1514
1511 1531 1526 1532 1530 1534 1542 1541 1539 1538 1539 1543 1547 1547 1540 1537 1533 1530 1528 1524 1521 1516 1513 1511 1508 1504 1501 1495 1496 1499 1506 1501 1495 1486 1489 1496 1502 1502 1501 1501 1504 1501 1504 1509
1517 1527 1536 1539 1537 1537 1548 1548 1545 1545 1543 1543 1548 1543 1540 1537 1535 1532 1529 1526 1521 1518 1515 1513 1511 1508 1500 1495 1498 1501 1493 1486 1482 1480 1488 1484 1488 1490 1492 1494 1495 1497 1495 1502
1522 1530 1541 1548 1540 1553 1551 1542 1541 1545 1545 1544 1542 1541 1539 1538 1534 1530 1529 1528 1523 1519 1514 1511 1508 1507 1506 1500 1496 1489 1488 1485 1484 1484 1482 1475 1476 1478 1478 1484 1483 1488 1488 1493
1514 1528 1545 1550 1561 1556 1548 1545 1545 1545 1547 1543 1542 1540 1537 1534 1531 1528 1527 1526 1523 1519 1515 1508 1504 1502 1499 1496 1492 1489 1486 1482 1479 1469 1464 1467 1464 1457 1459 1470 1473 1478 1481 1488
1516 1520 1532 1549 1547 1559 1549 1541 1540 1540 1551 1541 1540 1538 1535 1532 1532 1526 1523 1521 1518 1517 1514 1508 1501 1498 1496 1494 1490 1487 1483 1477 1474 1466 1465 1464 1452 1445 1448 1455 1464 1472 1472 1478
1534 1538 1542 1548 1552 1550 1542 1540 1539 1551 1551 1538 1537 1535 1533 1532 1530 1524 1520 1516 1514 1512 1508 1505 1501 1496 1492 1489 1484 1480 1478 1474 1468 1462 1461 1448 1427 1433 1448 1448 1455 1460 1464 1465
1533 1542 1546 1551 1552 1549 1538 1540 1542 1543 1539 1538 1535 1532 1529 1526 1522 1519 1515 1511 1507 1504 1501 1499 1495 1493 1491 1487 1483 1478 1475 1470 1467 1463 1457 1445 1442 1438 1450 1454 1420 1442 1455 1452
1533 1532 1538 1541 1542 1536 1537 1537 1539 1539 1538 1536 1534 1530 1525 1519 1516 1514 1510 1505 1500 1496 1494 1492 1488 1485 1485 1482 1481 1478 1473 1468 1465 1466 1462 1458 1456 1449 1458 1436 1439 1421 1424 1444
1526 1525 1532 1535 1537 1535 1535 1537 1537 1536 1535 1533 1531 1527 1522 1515 1510 1508 1505 1500 1495 1490 1486 1485 1481 1478 1477 1475 1472 1471 1468 1465 1462 1460 1457 1458 1459 1458 1456 1452 1455 1445 1438 1438
1524 1525 1530 1534 1533 1533 1534 1534 1533 1533 1532 1529 1526 1522 1516 1511 1505 1503 1498 1494 1490 1485 1480 1477 1472 1468 1468 1466 1461 1462 1458 1456 1454 1452 1454 1453 1451 1451 1451 1449 1445 1438 1435 1445
1520 1523 1529 1531 1526 1528 1530 1531 1531 1530 1528 1525 1520 1514 1511 1506 1500 1497 1493 1490 1486 1481 1477 1472 1466 1460 1457 1456 1450 1449 1452 1451 1448 1448 1447 1449 1449 1449 1445 1446 1445 1444 1449 1448